Location: Cahas Mountain Overlook
(37.0833°N, 80.1000°W)
Time: 02:50:27
(UTC-05:00)

Vanguard 1 - All Passes

Search period start: 15 February 2026 00:00
Search period end: 25 February 2026 00:00
Orbit: 652 x 3820 km, 34.3° (Epoch: 13 February)

Date Brightness Start Highest point End Pass type
(mag) Time Alt. Az. Time Alt. Az. Time Alt. Az.
15 Feb - 01:24:37 10° W 01:33:40 14° SW 01:41:51 10° SSW visible
15 Feb - 13:45:50 10° S 13:53:12 26° SE 14:04:33 10° E daylight
15 Feb - 16:02:33 10° SW 16:13:49 66° SSE 16:33:57 10° E daylight
15 Feb - 18:22:54 10° W 18:38:37 82° S 19:02:19 10° E visible
15 Feb - 20:45:28 10° W 21:05:21 68° SSW 21:27:57 10° SE visible
15 Feb - 23:11:05 10° W 23:30:28 37° SW 23:48:07 10° SSE visible
16 Feb - 14:03:54 10° SSW 14:11:53 34° SE 14:25:11 10° E daylight
16 Feb - 16:21:39 10° WSW 16:33:18 72° SSE 16:54:04 10° E daylight
16 Feb - 18:42:23 10° W 18:58:31 81° S 19:22:16 10° ESE visible
16 Feb - 21:05:10 10° W 21:25:02 61° SSW 21:47:06 10° SE visible
16 Feb - 23:31:50 10° W 23:49:31 29° SW 00:05:44 10° S visible
17 Feb - 14:22:20 10° SSW 14:30:44 43° SE 14:45:31 10° E daylight
17 Feb - 16:40:52 10° WSW 16:52:53 77° SSE 17:14:12 10° E daylight
17 Feb - 19:01:52 10° W 19:18:24 78° SSW 19:42:07 10° ESE visible
17 Feb - 21:24:57 10° W 21:44:35 53° SSW 22:05:59 10° SE visible
17 Feb - 23:53:18 10° W 00:08:30 22° SW 00:22:37 10° S visible
18 Feb - 12:27:10 10° SSE 12:30:47 13° SE 12:35:14 10° E daylight
18 Feb - 14:41:02 10° SW 14:49:46 53° SSE 15:05:42 10° E daylight
18 Feb - 17:00:10 10° W 17:12:34 80° S 17:34:20 10° E daylight
18 Feb - 19:21:23 10° W 19:38:14 73° SSW 20:01:48 10° ESE visible
18 Feb - 21:44:53 10° W 22:04:01 45° SW 22:24:32 10° SSE visible
19 Feb - 00:16:13 10° W 00:27:27 16° SW 00:38:06 10° SSW visible
19 Feb - 12:43:59 10° S 12:49:20 20° SE 12:56:59 10° E daylight
19 Feb - 14:59:56 10° SW 15:08:57 62° SSE 15:25:49 10° E daylight
19 Feb - 17:19:31 10° W 17:32:19 81° S 17:54:26 10° E daylight
19 Feb - 19:40:55 10° W 19:58:01 67° SSW 20:21:18 10° SE visible
19 Feb - 22:05:04 10° W 22:23:20 38° SW 22:42:42 10° SSE visible
20 Feb - 13:01:51 10° SSW 13:07:59 28° SE 13:17:42 10° E daylight
20 Feb - 15:18:59 10° WSW 15:28:18 70° SSE 15:45:55 10° E daylight
20 Feb - 17:38:54 10° W 17:52:06 80° S 18:14:29 10° ESE daylight
20 Feb - 20:00:31 10° W 20:17:43 60° SSW 20:40:32 10° SE visible
20 Feb - 22:25:37 10° W 22:42:36 30° SW 23:00:22 10° S visible
21 Feb - 13:20:10 10° SSW 13:26:47 37° SE 13:38:02 10° E daylight
21 Feb - 15:38:09 10° WSW 15:47:47 75° SSE 16:06:01 10° E daylight
21 Feb - 17:58:18 10° W 18:11:52 77° S 18:34:25 10° ESE visible
21 Feb - 20:20:11 10° W 20:37:20 53° SSW 20:59:29 10° SE visible
21 Feb - 22:46:50 10° W 23:01:48 23° SW 23:17:19 10° S visible
22 Feb - 13:38:48 10° SW 13:45:45 47° SSE 13:58:09 10° E daylight
22 Feb - 15:57:24 10° WSW 16:07:20 79° S 16:26:09 10° E daylight
22 Feb - 18:17:43 10° W 18:31:38 72° SSW 18:54:12 10° ESE visible
22 Feb - 20:40:00 10° W 20:56:52 45° SSW 21:18:06 10° SSE visible
22 Feb - 23:09:18 10° W 23:20:59 17° SW 23:33:00 10° SSW visible
23 Feb - 11:42:33 10° SSE 11:45:55 15° SE 11:50:08 10° E daylight
23 Feb - 13:57:41 10° SW 14:04:51 57° SSE 14:18:11 10° E daylight
23 Feb - 16:16:41 10° W 16:26:57 80° S 16:46:15 10° E daylight
23 Feb - 18:37:09 10° W 18:51:20 66° SSW 19:13:47 10° SE visible
23 Feb - 21:00:03 10° W 21:16:21 37° SW 21:36:19 10° SSE visible
23 Feb - 23:35:57 10° WSW 23:40:13 11° SW 23:44:32 10° SW visible
24 Feb - 12:00:01 10° S 12:04:35 22° SE 12:11:07 10° E daylight
24 Feb - 14:16:41 10° WSW 14:24:06 66° SSE 14:38:12 10° E daylight
24 Feb - 16:35:59 10° W 16:46:36 79° S 17:06:19 10° ESE daylight
24 Feb - 18:56:39 10° W 19:11:00 59° SSW 19:33:06 10° SE visible
24 Feb - 21:20:27 10° W 21:35:46 30° SW 21:54:00 10° SSE visible
